Weather History for KFFM - September, 2012

Change the Weather History Date:

Friday, September 7, 2012

  Actual Average Record
Temperature  
Mean Temperature 60 °F -  
Max Temperature 68 °F 74 °F 96 °F (1978)
Min Temperature 48 °F 51 °F 39 °F (1956)
Degree Days  
Heating Degree Days 6    
Growing Degree Days 10 (Base 50)    
Moisture  
Dew Point 47 °F    
Average Humidity 70    
Maximum Humidity 94    
Minimum Humidity 40    
Precipitation  
Precipitation 0.00 in - - ()
Sea Level Pressure  
Sea Level Pressure 30.07 in    
Wind  
Wind Speed 8 mph (North)    
Max Wind Speed 24 mph    
Max Gust Speed 31 mph    
Visibility 10 miles    
Events      
Averages and records for this station are not official NWS values.
T = Trace of Precipitation, MM = Missing Value Source: NWS Daily Summary

Daily Weather History Graph

Daily Weather History Graph

Search for Another Location

Airport or City:

Trip Planner

Search our weather history database for the weather conditions in past years. The results will help you decide how hot, cold, wet, or windy it might be!

Date:

Astronomy

Sep. 07, 2012 Rise Set
Actual Time 6:53 AM CDT 7:50 PM CDT
Civil Twilight 6:22 AM CDT 8:21 PM CDT
Nautical Twilight 5:45 AM CDT 8:57 PM CDT
Astronomical Twilight 5:07 AM CDT 9:36 PM CDT
Moon 11:22 PM CDT (9/7) 2:11 PM CDT (9/7)
Length of Visible Light 13h 58m
Length of Day
12h 57m
Waning Gibbous, 58% of the Moon is Illuminated
Sep 7
Waning Gibbous
Sep 8
Last Quarter
Sep 15
New
Sep 22
First Quarter
Sep 29
Full

Hourly Weather History & Observations

Time (CDT) Temp. Dew Point Humidity Pressure Visibility Wind Dir Wind Speed Gust Speed Precip Events Conditions
12:13 AM 55.4 °F 53.6 °F 94% 29.99 in 10.0 mi North 6.9 mph - N/A   Clear
12:33 AM 55.4 °F 53.6 °F 94% 29.99 in 10.0 mi North 4.6 mph - N/A   Clear
12:53 AM 55.4 °F 53.6 °F 94% 29.99 in 10.0 mi North 4.6 mph - N/A   Clear
1:33 AM 55.4 °F 53.6 °F 94% 30.00 in 10.0 mi North 3.5 mph - N/A   Clear
1:53 AM 55.4 °F 53.6 °F 94% 30.00 in 10.0 mi North 5.8 mph - N/A   Clear
2:13 AM 55.4 °F 53.6 °F 94% 30.00 in 10.0 mi Calm Calm - N/A   Clear
2:33 AM 55.4 °F 53.6 °F 94% 29.99 in 10.0 mi North 6.9 mph - N/A   Clear
2:53 AM 55.4 °F 51.8 °F 88% 29.99 in 10.0 mi North 6.9 mph - N/A   Clear
3:13 AM 53.6 °F 51.8 °F 94% 29.99 in 10.0 mi Calm Calm - N/A   Clear
3:33 AM 53.6 °F 50.0 °F 88% 30.00 in 10.0 mi North 5.8 mph - N/A   Clear
3:53 AM 51.8 °F 50.0 °F 94% 30.01 in 10.0 mi North 5.8 mph - N/A   Clear
4:13 AM 53.6 °F 50.0 °F 88% 30.01 in 10.0 mi North 5.8 mph - N/A   Clear
4:33 AM 53.6 °F 50.0 °F 88% 30.01 in 10.0 mi North 5.8 mph - N/A   Clear
4:54 AM 53.6 °F 51.8 °F 94% 30.01 in 10.0 mi North 4.6 mph - N/A   Clear
5:13 AM 51.8 °F 50.0 °F 94% 30.02 in 10.0 mi North 4.6 mph - N/A   Clear
5:33 AM 51.8 °F 48.2 °F 88% 30.03 in 10.0 mi North 5.8 mph - N/A   Clear
5:54 AM 51.8 °F 50.0 °F 94% 30.03 in 10.0 mi North 8.1 mph - N/A   Clear
6:13 AM 53.6 °F 51.8 °F 94% 30.04 in 10.0 mi North 9.2 mph - N/A   Clear
6:33 AM 53.6 °F 51.8 °F 94% 30.05 in 10.0 mi NNW 9.2 mph - N/A   Clear
6:53 AM 51.8 °F 50.0 °F 94% 30.06 in 10.0 mi North 10.4 mph - N/A   Clear
7:13 AM 51.8 °F 50.0 °F 94% 30.07 in 10.0 mi North 6.9 mph - N/A   Clear
7:33 AM 51.8 °F 48.2 °F 88% 30.08 in 10.0 mi North 6.9 mph - N/A   Clear
7:54 AM 51.8 °F 50.0 °F 94% 30.09 in 10.0 mi NNW 5.8 mph - N/A   Clear
8:13 AM 53.6 °F 51.8 °F 94% 30.10 in 10.0 mi NNW 6.9 mph - N/A   Clear
8:33 AM 53.6 °F 51.8 °F 94% 30.10 in 10.0 mi NNW 8.1 mph - N/A   Clear
8:53 AM 55.4 °F 51.8 °F 88% 30.10 in 10.0 mi NNW 8.1 mph - N/A   Clear
9:13 AM 55.4 °F 51.8 °F 88% 30.10 in 10.0 mi NNW 10.4 mph - N/A   Clear
9:33 AM 57.2 °F 51.8 °F 82% 30.10 in 10.0 mi NNW 11.5 mph - N/A   Clear
9:53 AM 57.2 °F 48.2 °F 72% 30.10 in 10.0 mi NNW 13.8 mph 19.6 mph N/A   Clear
10:13 AM 59.0 °F 48.2 °F 67% 30.10 in 10.0 mi NNW 16.1 mph 20.7 mph N/A   Clear
10:33 AM 59.0 °F 48.2 °F 67% 30.11 in 10.0 mi North 13.8 mph 18.4 mph N/A   Clear
10:53 AM 59.0 °F 46.4 °F 63% 30.11 in 10.0 mi NNW 11.5 mph 19.6 mph N/A   Clear
11:13 AM 60.8 °F 44.6 °F 55% 30.11 in 10.0 mi North 11.5 mph 21.9 mph N/A   Clear
11:33 AM 60.8 °F 44.6 °F 55% 30.10 in 10.0 mi NNW 15.0 mph 20.7 mph N/A   Clear
11:53 AM 60.8 °F 44.6 °F 55% 30.10 in 10.0 mi NNW 21.9 mph 25.3 mph N/A   Clear
12:13 PM 60.8 °F 44.6 °F 55% 30.10 in 10.0 mi NNW 13.8 mph 25.3 mph N/A   Clear
12:33 PM 60.8 °F 44.6 °F 55% 30.10 in 10.0 mi North 13.8 mph 23.0 mph N/A   Clear
12:53 PM 60.8 °F 44.6 °F 55% 30.10 in 10.0 mi NNW 16.1 mph 25.3 mph N/A   Clear
1:13 PM 64.4 °F 44.6 °F 49% 30.09 in 10.0 mi NNW 20.7 mph 24.2 mph N/A   Clear
1:33 PM 64.4 °F 42.8 °F 45% 30.09 in 10.0 mi North 16.1 mph 31.1 mph N/A   Clear
1:53 PM 64.4 °F 44.6 °F 49% 30.08 in 10.0 mi NNW 24.2 mph - N/A   Clear
2:13 PM 64.4 °F 44.6 °F 49% 30.09 in 10.0 mi NNW 19.6 mph 26.5 mph N/A   Clear
2:33 PM 64.4 °F 42.8 °F 45% 30.09 in 10.0 mi NNW 21.9 mph 27.6 mph N/A   Clear
2:58 PM 66.2 °F 42.8 °F 43% 30.08 in 10.0 mi North 17.3 mph 26.5 mph N/A   Clear
3:13 PM 66.2 °F 42.8 °F 43% 30.08 in 10.0 mi North 20.7 mph 29.9 mph N/A   Clear
3:33 PM 66.2 °F 42.8 °F 43% 30.08 in 10.0 mi NNW 21.9 mph 29.9 mph N/A   Clear
3:53 PM 66.2 °F 42.8 °F 43% 30.08 in 10.0 mi NNW 16.1 mph 26.5 mph N/A   Clear
4:13 PM 68.0 °F 42.8 °F 40% 30.07 in 10.0 mi NNW 16.1 mph 25.3 mph N/A   Clear
4:33 PM 66.2 °F 42.8 °F 43% 30.07 in 10.0 mi NNW 20.7 mph 26.5 mph N/A   Clear
4:53 PM 66.2 °F 42.8 °F 43% 30.07 in 10.0 mi NNW 17.3 mph 21.9 mph N/A   Clear
5:13 PM 64.4 °F 42.8 °F 45% 30.08 in 10.0 mi NNW 17.3 mph 27.6 mph N/A   Clear
5:33 PM 66.2 °F 44.6 °F 46% 30.08 in 10.0 mi North 10.4 mph 20.7 mph N/A   Clear
5:53 PM 66.2 °F 44.6 °F 46% 30.08 in 10.0 mi North 11.5 mph 19.6 mph N/A   Clear
6:13 PM 66.2 °F 44.6 °F 46% 30.08 in 10.0 mi North 13.8 mph 19.6 mph N/A   Clear
6:33 PM 64.4 °F 42.8 °F 45% 30.08 in 10.0 mi North 9.2 mph 19.6 mph N/A   Clear
6:53 PM 64.4 °F 42.8 °F 45% 30.08 in 10.0 mi North 9.2 mph 18.4 mph N/A   Clear
7:13 PM 64.4 °F 44.6 °F 49% 30.08 in 10.0 mi North 8.1 mph - N/A   Clear
7:33 PM 62.6 °F 44.6 °F 52% 30.08 in 10.0 mi North 4.6 mph - N/A   Clear
7:53 PM 60.8 °F 44.6 °F 55% 30.08 in 10.0 mi North 3.5 mph - N/A   Clear
8:13 PM 59.0 °F 44.6 °F 59% 30.09 in 10.0 mi Calm Calm - N/A   Clear
8:33 PM 59.0 °F 44.6 °F 59% 30.09 in 10.0 mi Calm Calm - N/A   Clear
8:53 PM 57.2 °F 44.6 °F 63% 30.09 in 10.0 mi Calm Calm - N/A   Clear
9:13 PM 55.4 °F 44.6 °F 67% 30.10 in 10.0 mi NNW 3.5 mph - N/A   Clear
9:33 PM 55.4 °F 46.4 °F 72% 30.10 in 10.0 mi Calm Calm - N/A   Clear
9:53 PM 55.4 °F 46.4 °F 72% 30.10 in 10.0 mi North 4.6 mph - N/A   Clear
10:13 PM 53.6 °F 46.4 °F 77% 30.10 in 10.0 mi North 3.5 mph - N/A   Clear
10:53 PM 51.8 °F 44.6 °F 76% 30.11 in 10.0 mi Calm Calm - N/A   Clear
11:53 PM 48.2 °F 42.8 °F 82% 30.09 in 10.0 mi Calm Calm - N/A   Clear